Probability
100 94 84 68 26 6 0 0 0 0 0 0 3 3 0 0 0 0 0 45 71 77 94 100 97 97 100 97 97 97 100 100 100 97 97 94 94 94 90 97 94 94 94 94 97 97 94 94 90
100 90 81 29 6 0 0 0 0 0 0 0 0 0 0 3 3 3 23 61 61 77 94 94 100 100 97 97 97 94 97 97 94 94 94 94 90 90 94 97 87 87 90 87 87 90 94 90 90
100 94 61 6 0 0 0 0 0 0 0 0 0 0 0 0 6 6 26 52 52 77 90 94 94 97 97 97 94 94 94 94 97 97 94 94 90 94 94 94 90 84 90 94 87 90 90 90 90
90 68 16 3 0 0 0 0 0 3 0 6 0 0 0 3 10 19 35 45 48 55 74 81 87 90 94 97 97 97 94 90 87 94 90 94 90 90 94 94 94 90 87 87 90 87 87 87 81
81 23 6 0 0 0 0 0 0 0 0 3 0 0 0 19 23 19 29 29 32 42 55 68 81 77 81 84 84 90 94 90 90 87 94 97 94 90 94 94 94 90 87 84 84 84 84 81 77
58 10 0 0 0 0 0 0 0 0 0 0 0 0 3 10 13 13 16 23 23 32 35 48 58 65 61 68 74 74 77 77 71 77 84 84 84 87 94 94 97 94 90 90 84 84 84 77 77
48 0 0 0 0 0 0 0 0 0 0 0 0 0 3 3 0 3 3 6 3 10 16 19 23 39 45 55 58 58 52 65 68 68 71 74 81 84 90 94 97 97 94 94 94 90 87 84 81
32 0 0 0 0 0 0 0 0 0 0 6 10 0 0 6 0 0 0 0 0 0 0 0 6 10 13 13 29 39 45 42 55 65 65 68 71 68 71 77 90 94 97 97 94 94 90 90 84
23 0 0 0 0 0 0 0 0 0 0 0 10 13 3 10 6 3 0 0 0 0 0 0 0 0 0 0 6 19 19 19 26 32 29 48 32 32 39 52 68 81 87 87 94 94 94 90 90
13 0 0 0 0 0 0 0 0 0 0 3 6 16 16 10 6 3 3 0 0 0 0 0 0 0 0 0 0 0 0 3 3 6 6 6 6 3 10 26 45 61 77 81 84 84 87 90 71
6 0 0 0 0 0 0 0 0 0 0 3 6 3 10 6 3 0 0 0 0 0 0 0 0 0 0 0 0 0 0 0 0 0 3 3 3 3 3 0 13 26 32 45 61 61 65 68 58
3 10 3 0 3 6 0 0 0 0 0 0 0 3 3 3 0 0 0 0 0 0 0 0 0 0 0 0 0 0 0 0 0 0 0 0 3 0 0 0 0 13 13 19 19 13 26 29 19
6 0 6 6 6 3 0 0 0 0 0 0 0 0 0 0 0 0 0 0 0 0 0 0 0 0 0 0 0 0 0 0 0 0 0 0 0 0 0 0 0 3 3 0 3 3 3 3 3
6 6 3 3 3 0 0 0 0 0 0 0 0 0 0 0 0 0 0 0 0 0 0 0 0 0 0 0 0 0 0 0 0 0 0 0 0 0 0 0 0 0 0 0 0 0 0 0 0
10 10 0 0 3 0 0 0 0 0 0 0 0 0 0 0 0 0 0 0 0 0 0 0 0 0 0 0 0 0 0 0 0 0 0 0 0 0 0 0 0 0 0 0 0 0 0 0 0
0 0 0 0 3 0 0 0 0 0 0 0 0 0 0 0 0 0 0 0 0 0 0 0 0 0 0 0 0 0 0 0 0 0 0 0 0 0 0 0 0 0 0 0 0 0 0 0 0
0 0 0 0 3 0 0 0 0 0 0 0 0 0 0 0 0 0 0 0 0 0 0 0 0 0 0 0 0 0 0 0 0 0 0 0 0 0 0 0 0 0 0 0 0 0 0 0 0
0 0 0 0 0 0 0 0 0 0 0 0 0 0 0 0 0 0 0 0 0 0 0 0 0 0 0 0 0 0 0 0 0 0 0 0 0 0 0 0 0 0 0 0 0 0 0 0 0
0 0 0 0 0 3 0 0 0 0 0 0 0 0 0 0 0 0 0 0 0 0 0 0 0 0 0 0 0 0 0 0 0 0 0 0 0 0 0 0 0 0 0 0 0 0 0 0 0
0 0 0 0 0 0 0 0 0 0 0 0 0 0 0 0 0 0 0 0 0 0 0 0 0 0 0 0 0 0 0 0 0 0 0 0 0 0 0 0 0 0 0 0 0 0 0 0 0
0 0 0 0 0 0 0 0 0 0 0 0 0 0 0 0 0 0 0 0 0 0 0 0 0 0 0 0 0 0 0 0 0 0 0 0 0 0 0 0 0 0 0 0 0 0 0 0 0
0 0 0 0 0 0 0 0 0 0 0 0 0 0 0 0 0 0 0 0 0 0 0 0 0 0 0 0 0 0 0 0 0 0 0 0 0 0 0 0 0 0 0 0 0 0 0 0 0
0 0 0 0 0 0 0 0 0 0 0 0 0 0 0 0 0 0 0 0 0 0 0 0 0 0 0 0 0 0 0 0 0 0 0 0 0 0 0 0 0 0 0 0 0 0 0 0 0
0 0 0 0 0 0 0 0 0 0 0 0 0 0 0 0 0 0 0 0 0 0 0 0 0 0 0 0 0 0 0 0 0 0 0 0 0 0 0 0 0 0 0 0 0 0 0 0 0
0 0 0 0 0 0 0 0 0 0 0 0 0 0 0 0 0 0 0 0 0 0 0 0 0 0 0 0 0 0 0 0 0 0 0 0 0 0 0 0 0 0 0 0 0 0 0 0 0
0 0 0 0 0 0 0 0 0 0 0 0 0 0 0 0 0 0 0 0 0 0 0 0 0 0 0 0 0 0 0 0 0 0 0 0 0 0 0 0 0 0 0 0 0 0 0 0 0
0 0 0 0 0 0 0 0 0 0 0 0 0 0 0 0 0 0 0 0 0 0 0 0 0 0 0 0 0 0 0 0 0 0 0 0 0 0 0 0 0 0 0 0 0 0 0 0 0
0 0 0 0 0 0 0 0 0 0 0 0 0 0 0 0 0 0 0 0 0 0 0 0 0 0 0 0 0 0 0 0 0 0 0 0 0 0 0 0 0 0 0 0 0 0 0 0 0
0 0 0 0 0 0 0 0 0 0 0 0 0 0 0 0 0 0 0 0 0 0 0 0 0 0 0 0 0 0 0 0 0 0 0 0 0 0 0 0 0 0 0 0 0 0 0 0 0
0 0 0 0 0 0 0 0 0 0 0 0 0 0 0 0 0 0 0 0 0 0 0 0 0 0 0 0 0 0 0 0 0 0 0 0 0 0 0 0 0 0 0 0 0 0 0 0 0
Height
5912 5910 5908 5907 5907 5906 5905 5905 5905 5904 5903 5902 5901 5900 5899 5898 5898 5899 5895 5891 5890 5889 5888 5887 5887 5886 5887 5886 5886 5886 5886 5886 5886 5886 5886 5886 5887 5887 5887 5887 5887 5887 5887 5888 5887 5887 5887 5887 5887
5912 5910 5908 5906 5905 5905 5905 5904 5904 5904 5903 5901 5900 5899 5898 5897 5896 5894 5891 5889 5888 5887 5886 5885 5885 5884 5884 5884 5884 5883 5883 5883 5883 5883 5884 5884 5884 5884 5885 5885 5885 5885 5885 5885 5885 5885 5885 5885 5885
5911 5910 5908 5905 5905 5905 5905 5903 5903 5902 5901 5900 5899 5898 5896 5895 5894 5892 5889 5887 5885 5885 5884 5883 5882 5882 5881 5881 5880 5880 5880 5880 5880 5880 5880 5880 5881 5881 5882 5882 5882 5882 5882 5882 5883 5883 5883 5883 5883
5911 5909 5908 5906 5905 5904 5904 5903 5902 5901 5899 5898 5897 5896 5894 5893 5891 5889 5887 5885 5883 5882 5881 5880 5879 5879 5878 5877 5877 5876 5876 5875 5876 5876 5876 5877 5877 5877 5878 5878 5879 5879 5879 5880 5880 5880 5881 5881 5881
5910 5908 5907 5906 5904 5903 5902 5901 5900 5899 5898 5897 5895 5893 5891 5890 5888 5886 5884 5882 5880 5879 5878 5877 5876 5875 5874 5873 5872 5871 5871 5871 5871 5871 5871 5872 5872 5873 5874 5875 5875 5876 5876 5877 5877 5878 5878 5878 5879
5909 5907 5906 5904 5903 5902 5900 5899 5898 5897 5896 5894 5892 5890 5888 5886 5884 5882 5880 5878 5876 5875 5873 5872 5871 5870 5869 5868 5867 5867 5866 5866 5866 5866 5866 5867 5867 5868 5869 5870 5871 5872 5873 5873 5874 5875 5875 5876 5876
5907 5905 5904 5903 5901 5900 5899 5897 5895 5894 5893 5891 5888 5886 5884 5882 5880 5878 5875 5873 5871 5870 5868 5866 5865 5864 5863 5862 5862 5861 5860 5860 5860 5860 5861 5861 5862 5863 5864 5865 5867 5868 5869 5870 5870 5871 5872 5873 5874
5904 5904 5901 5900 5899 5898 5896 5895 5893 5892 5889 5887 5885 5882 5880 5878 5875 5872 5870 5868 5866 5864 5862 5860 5859 5858 5856 5856 5855 5854 5853 5853 5854 5854 5855 5855 5856 5857 5858 5860 5861 5863 5864 5865 5866 5867 5868 5870 5871
5901 5901 5898 5897 5897 5896 5894 5892 5891 5888 5886 5883 5881 5878 5876 5873 5871 5868 5865 5862 5859 5857 5855 5853 5852 5850 5849 5848 5847 5846 5846 5846 5846 5847 5848 5849 5850 5851 5852 5854 5855 5857 5858 5860 5861 5863 5864 5866 5867
5899 5897 5896 5895 5894 5893 5891 5889 5887 5885 5882 5880 5877 5874 5872 5869 5866 5863 5860 5856 5853 5851 5848 5846 5844 5842 5841 5840 5839 5838 5838 5838 5838 5839 5840 5841 5843 5844 5846 5847 5849 5851 5852 5854 5856 5857 5859 5861 5863
5895 5895 5893 5891 5890 5889 5887 5886 5883 5881 5879 5876 5873 5870 5867 5864 5861 5858 5855 5851 5848 5845 5842 5840 5837 5835 5833 5832 5830 5830 5830 5830 5830 5831 5832 5834 5835 5837 5839 5841 5842 5844 5846 5848 5850 5852 5854 5856 5859
5892 5891 5889 5888 5886 5885 5884 5882 5880 5877 5875 5872 5869 5866 5862 5859 5856 5853 5850 5846 5843 5840 5837 5834 5831 5829 5826 5825 5823 5822 5822 5822 5822 5823 5824 5826 5828 5830 5831 5833 5835 5837 5839 5841 5844 5846 5848 5851 5853
5889 5887 5886 5885 5883 5882 5881 5879 5876 5874 5871 5868 5865 5862 5859 5856 5852 5849 5845 5842 5839 5836 5833 5830 5826 5823 5821 5818 5816 5815 5814 5814 5814 5815 5816 5818 5820 5822 5824 5826 5828 5830 5832 5835 5838 5840 5842 5845 5848
5885 5883 5882 5882 5881 5881 5879 5876 5874 5871 5869 5866 5863 5860 5856 5853 5849 5846 5842 5839 5835 5832 5829 5825 5822 5819 5816 5813 5811 5809 5808 5807 5807 5808 5809 5810 5812 5814 5816 5819 5821 5823 5826 5828 5831 5834 5836 5839 5842
5882 5881 5880 5879 5879 5878 5877 5875 5872 5869 5866 5863 5861 5858 5855 5851 5847 5844 5840 5836 5833 5829 5825 5822 5818 5815 5811 5808 5805 5803 5802 5801 5801 5801 5802 5803 5805 5807 5809 5811 5814 5816 5818 5821 5824 5827 5830 5833 5836
5879 5879 5878 5878 5876 5875 5876 5873 5870 5867 5864 5861 5859 5856 5853 5849 5846 5842 5838 5834 5831 5827 5823 5819 5815 5811 5808 5804 5801 5799 5797 5795 5795 5795 5795 5796 5798 5800 5802 5804 5806 5809 5811 5814 5817 5820 5823 5826 5829
5876 5876 5875 5876 5874 5873 5872 5870 5867 5864 5862 5859 5857 5854 5851 5848 5844 5841 5837 5833 5829 5825 5821 5817 5813 5809 5805 5801 5798 5795 5793 5791 5791 5790 5790 5791 5792 5793 5795 5797 5800 5802 5804 5807 5810 5812 5816 5819 5823
5874 5874 5873 5873 5872 5871 5869 5867 5865 5862 5860 5857 5855 5853 5850 5847 5843 5840 5836 5832 5828 5824 5820 5815 5811 5807 5802 5798 5795 5792 5790 5789 5787 5787 5786 5786 5787 5788 5789 5791 5793 5795 5797 5800 5803 5806 5809 5812 5815
5871 5871 5871 5871 5869 5868 5866 5865 5863 5860 5858 5856 5853 5851 5848 5846 5843 5839 5835 5831 5827 5823 5819 5814 5810 5805 5801 5797 5793 5791 5788 5786 5785 5784 5783 5783 5783 5783 5784 5785 5786 5788 5790 5793 5795 5799 5802 5805 5808
5868 5869 5868 5868 5866 5865 5864 5863 5862 5859 5857 5854 5852 5850 5848 5845 5842 5838 5834 5831 5827 5823 5819 5814 5810 5805 5801 5797 5793 5790 5787 5785 5783 5781 5780 5779 5779 5778 5779 5779 5780 5781 5783 5786 5788 5791 5794 5798 5801
5866 5866 5866 5865 5864 5863 5863 5862 5861 5859 5856 5854 5851 5850 5848 5845 5841 5838 5835 5831 5827 5823 5819 5815 5810 5806 5801 5797 5793 5789 5786 5783 5781 5779 5777 5776 5775 5774 5774 5774 5775 5775 5777 5779 5781 5784 5787 5790 5794
5863 5863 5863 5863 5863 5862 5862 5861 5860 5858 5855 5853 5851 5849 5847 5845 5842 5839 5835 5832 5828 5824 5820 5815 5811 5806 5802 5797 5793 5789 5786 5783 5780 5777 5775 5773 5771 5770 5769 5769 5769 5770 5771 5772 5774 5777 5780 5783 5786
5861 5861 5861 5861 5861 5861 5860 5860 5859 5856 5855 5853 5851 5850 5848 5845 5842 5839 5836 5833 5829 5825 5820 5816 5811 5807 5802 5798 5793 5789 5786 5782 5779 5775 5773 5770 5768 5766 5765 5765 5764 5764 5765 5766 5768 5770 5773 5776 5778
5858 5859 5859 5860 5860 5860 5859 5858 5858 5855 5854 5853 5851 5850 5848 5845 5843 5840 5837 5833 5830 5826 5821 5817 5812 5808 5803 5798 5794 5790 5786 5782 5778 5774 5771 5768 5765 5763 5762 5760 5760 5760 5760 5761 5762 5764 5766 5768 5771
5857 5858 5858 5858 5858 5858 5857 5856 5857 5855 5854 5852 5851 5849 5847 5845 5843 5840 5837 5834 5830 5826 5822 5818 5813 5808 5804 5799 5795 5790 5786 5781 5777 5773 5769 5766 5763 5760 5758 5757 5756 5756 5756 5756 5757 5758 5760 5762 5764
5854 5856 5857 5857 5857 5856 5856 5855 5856 5854 5853 5852 5851 5849 5848 5846 5843 5841 5838 5834 5831 5827 5823 5819 5814 5809 5805 5800 5795 5791 5786 5782 5777 5773 5768 5764 5761 5758 5756 5754 5753 5752 5752 5752 5752 5753 5754 5756 5758
5852 5853 5855 5855 5855 5855 5855 5855 5854 5853 5852 5851 5850 5849 5847 5846 5843 5841 5838 5835 5831 5827 5824 5819 5815 5810 5805 5801 5796 5792 5787 5782 5778 5773 5768 5764 5761 5758 5755 5753 5751 5750 5749 5749 5749 5749 5749 5750 5752
5851 5851 5853 5853 5853 5853 5854 5853 5854 5852 5852 5851 5850 5849 5847 5846 5844 5841 5838 5835 5832 5828 5824 5820 5816 5811 5807 5802 5797 5793 5788 5784 5779 5774 5769 5765 5761 5758 5755 5752 5750 5749 5747 5746 5745 5745 5745 5745 5746
5849 5850 5850 5851 5852 5852 5852 5855 5853 5852 5852 5851 5850 5849 5847 5846 5843 5841 5838 5835 5832 5828 5824 5821 5816 5812 5808 5803 5799 5794 5789 5785 5780 5776 5771 5767 5762 5759 5755 5752 5750 5748 5746 5745 5743 5743 5742 5741 5741
5847 5848 5849 5850 5851 5851 5851 5855 5852 5852 5851 5850 5850 5848 5847 5845 5843 5841 5838 5835 5832 5828 5825 5821 5817 5813 5809 5804 5800 5795 5791 5786 5782 5777 5773 5768 5764 5760 5756 5753 5750 5748 5746 5744 5742 5741 5739 5738 5737
Wind_Speed
7 6 5 3 4 3 3 5 6 7 6 7 8 8 8 7 8 9 10 11 10 10 10 9 10 11 11 12 12 13 13 13 13 14 14 15 15 15 15 14 15 15 15 15 15 15 15 16 16
6 6 6 4 5 6 5 5 6 7 6 8 8 8 9 9 9 10 11 11 11 11 11 11 11 12 14 14 14 15 16 16 16 16 16 16 16 16 16 16 16 16 16 15 15 15 15 15 16
6 6 7 7 8 7 7 6 7 8 9 10 10 10 10 11 11 12 12 12 12 11 12 13 13 13 14 15 16 17 17 18 19 18 18 18 18 17 17 17 17 17 17 16 16 16 15 15 15
6 7 8 9 10 9 8 8 8 9 10 11 12 12 12 13 13 14 14 14 15 15 15 15 15 16 16 17 19 19 20 20 21 21 21 20 20 19 19 18 18 18 17 17 16 16 15 15 15
7 8 10 11 11 11 11 10 11 10 12 13 13 14 15 15 15 16 16 17 18 18 18 18 19 19 19 20 21 21 21 23 23 23 23 23 23 22 21 21 20 19 18 18 17 16 16 15 15
8 10 11 12 12 12 11 11 12 13 14 15 16 16 17 18 18 19 20 21 21 22 22 22 22 22 22 23 23 24 24 24 24 25 25 25 26 26 24 23 23 21 20 19 18 17 17 16 14
10 12 13 13 13 13 13 15 16 16 16 17 17 19 19 20 21 22 23 24 24 24 25 25 24 25 25 26 26 27 27 27 26 26 27 27 26 27 27 26 25 24 23 21 20 18 17 16 15
12 13 14 14 14 14 14 15 16 16 17 18 19 20 20 21 22 23 24 25 26 26 27 27 27 27 28 28 29 29 29 29 30 29 29 29 29 28 28 28 28 27 26 24 22 21 19 18 17
13 14 14 14 14 14 15 16 17 18 18 19 20 20 21 22 22 23 24 25 26 26 27 27 28 28 29 30 31 31 32 31 31 31 31 31 31 31 29 29 29 29 28 27 25 24 22 20 19
14 14 14 14 15 16 16 17 17 18 18 19 20 20 21 22 22 23 23 24 24 25 26 27 27 28 28 29 30 32 33 33 33 33 32 32 32 33 31 30 30 30 29 28 28 27 25 22 21
15 15 14 13 14 15 16 16 17 17 18 19 20 21 22 22 22 22 22 22 22 23 23 24 25 25 26 27 28 29 31 33 33 34 34 33 33 33 33 32 31 31 30 29 30 28 28 25 23
15 15 14 14 13 14 16 16 17 18 19 20 21 22 22 22 22 22 21 21 21 21 21 21 22 23 24 25 26 26 28 30 31 32 33 33 33 33 33 33 33 31 31 30 30 29 29 28 26
15 15 13 12 13 13 15 15 16 18 19 20 21 21 21 21 21 21 21 20 20 20 20 20 20 21 21 22 23 24 25 26 28 29 31 32 32 33 32 32 32 31 30 31 31 30 30 30 28
17 16 14 13 12 12 14 13 15 16 17 17 18 19 20 20 19 19 20 19 19 19 19 19 19 19 20 20 21 21 22 23 24 26 27 29 30 30 31 32 31 31 31 31 31 31 29 29 29
16 15 15 14 12 12 13 13 14 15 14 15 16 18 18 18 18 18 18 18 18 18 19 19 19 19 19 18 18 18 19 20 20 21 24 26 27 28 29 30 30 30 31 31 31 32 30 29 28
16 16 14 12 12 11 12 12 12 12 12 14 16 17 17 17 17 17 17 17 18 18 19 19 18 18 17 17 16 16 16 16 17 18 20 22 24 25 26 27 29 29 30 30 31 32 31 29 29
15 13 13 12 11 12 12 10 11 12 12 14 15 15 15 15 16 16 16 17 17 18 18 18 18 17 17 16 15 14 13 13 13 14 16 18 20 22 23 25 26 28 28 30 31 31 31 31 30
14 14 12 11 11 11 9 9 11 11 12 13 14 14 15 16 16 17 17 17 18 18 18 18 18 17 17 16 14 13 12 11 11 11 12 15 17 19 21 23 25 27 28 29 31 31 31 31 31
13 13 12 11 10 10 9 9 9 10 11 12 13 15 15 16 16 17 17 18 18 19 19 18 18 18 17 16 15 13 12 11 10 10 10 12 14 17 18 21 24 25 26 28 29 30 31 30 30
11 10 10 9 8 8 8 7 7 8 9 10 12 14 14 15 16 17 18 18 19 19 19 19 19 19 18 17 16 14 13 12 11 10 10 11 12 14 16 18 21 23 25 27 28 29 30 31 31
10 9 8 8 7 6 7 6 6 7 8 10 12 13 14 15 15 16 17 18 18 18 19 19 19 19 19 19 18 17 15 14 13 11 10 10 11 13 14 16 18 21 24 25 27 27 28 30 32
8 8 7 7 6 5 5 4 5 6 8 9 11 12 13 14 14 15 16 16 17 18 19 20 20 20 20 19 19 18 17 16 15 13 12 11 11 12 13 14 16 18 21 23 25 27 28 29 31
8 7 6 5 5 4 3 2 4 6 8 9 10 11 11 12 13 14 15 16 17 19 20 20 20 20 21 20 19 18 18 17 16 15 14 13 12 12 12 12 14 16 18 20 23 25 27 29 30
7 7 6 6 5 3 1 2 4 6 7 8 9 10 11 12 12 13 14 15 16 18 20 21 21 21 21 21 20 19 18 18 17 16 15 14 13 12 11 11 11 12 14 17 19 22 24 27 29
8 7 7 7 6 4 2 3 4 5 6 7 8 9 10 11 12 12 14 15 16 18 19 20 21 21 21 21 20 20 20 19 19 18 16 15 13 12 11 10 10 10 11 13 15 18 21 24 26
8 7 8 8 7 4 3 3 3 4 5 6 7 8 9 10 11 12 13 15 16 17 18 20 21 22 22 21 21 21 21 21 21 20 18 16 14 12 11 10 9 8 9 10 12 15 17 20 23
8 8 7 7 6 5 5 3 3 3 4 5 6 7 8 10 11 12 13 14 16 17 18 19 21 21 22 22 21 21 22 22 22 21 19 18 16 14 12 10 9 8 8 8 10 11 14 17 20
8 8 7 7 6 5 5 4 3 2 3 4 6 7 8 9 10 11 13 14 15 16 17 19 20 21 21 22 22 22 22 22 22 22 21 19 18 15 13 12 10 9 8 6 7 8 10 13 16
8 8 7 7 6 5 4 4 3 2 2 3 4 6 7 8 10 11 12 14 15 16 17 18 20 20 20 21 22 22 22 22 22 22 22 21 19 17 15 13 12 10 9 8 7 7 9 10 13
9 8 7 7 6 5 4 3 2 2 1 2 3 5 7 8 9 11 12 13 15 16 17 18 19 20 20 21 21 22 22 22 22 22 22 21 20 19 18 16 14 12 11 10 8 8 9 9 10
Wind_Direction
357 352 343 355 353 343 19 12 10 11 1 347 341 337 332 329 325 313 308 304 303 305 302 294 286 282 280 275 272 273 272 269 267 264 262 262 262 263 263 264 265 267 267 266 265 264 263 263 264
350 352 338 337 348 349 352 360 3 356 346 336 334 327 320 316 314 307 302 300 303 306 304 298 287 282 280 274 269 270 269 264 263 263 261 259 260 261 262 263 264 266 266 264 263 263 264 263 264
339 336 326 329 332 336 338 351 354 338 334 330 325 318 312 309 306 302 298 297 302 303 297 295 289 283 281 276 272 270 267 265 262 260 260 259 258 259 261 263 263 264 264 264 264 262 261 261 262
326 318 316 317 321 323 325 330 334 328 329 326 318 313 308 306 303 299 292 292 295 295 291 287 286 281 276 274 274 269 267 266 263 261 260 258 257 257 259 261 261 261 262 262 262 262 261 261 261
309 304 307 308 312 318 317 321 323 327 325 319 314 310 307 304 300 296 292 290 289 287 286 283 282 280 274 273 273 268 268 267 262 259 258 258 257 257 257 258 259 259 259 259 260 261 260 260 261
289 289 293 299 306 311 315 322 328 325 320 316 311 307 304 301 297 296 293 292 290 286 285 282 278 275 272 271 269 268 267 266 262 257 256 256 255 254 255 257 257 257 258 258 258 260 259 258 258
280 283 290 295 301 306 314 317 319 320 318 316 311 307 305 301 298 296 294 292 290 288 285 282 279 276 273 271 269 267 266 264 261 259 257 255 255 255 255 255 256 256 256 256 256 257 257 256 255
275 280 284 290 299 304 310 316 318 317 316 313 310 308 307 305 302 299 297 295 292 288 286 284 280 276 272 270 268 266 265 264 261 258 257 256 254 254 254 254 254 254 252 252 255 253 253 252 251
276 276 279 286 294 302 310 314 317 318 317 315 314 313 311 309 307 304 301 298 295 291 289 286 282 277 273 270 268 265 263 261 260 257 256 256 255 253 253 253 252 253 251 250 251 250 251 249 248
274 277 282 286 293 300 309 312 317 319 318 317 316 315 314 312 311 309 307 303 300 296 293 290 286 281 276 272 268 264 261 259 258 257 255 254 254 253 252 252 251 250 249 249 249 247 247 247 245
272 282 282 287 295 305 310 315 318 318 318 319 319 318 318 317 315 313 311 307 304 302 299 297 292 287 282 277 272 267 262 259 258 257 256 255 254 252 252 251 250 251 250 248 247 246 244 244 244
273 278 279 288 296 311 317 319 318 319 321 322 324 324 324 324 323 321 318 315 313 309 306 304 301 296 291 285 278 272 267 262 260 258 257 255 253 251 251 249 248 251 251 249 246 246 244 242 242
271 279 281 290 298 308 315 317 319 322 325 327 328 330 331 332 331 328 325 323 320 318 315 312 308 303 298 292 285 279 273 268 263 259 257 255 254 252 251 249 248 249 250 248 246 244 241 240 240
270 278 285 296 302 309 313 320 322 325 328 332 335 338 338 338 335 333 331 328 327 326 324 320 315 311 306 300 293 285 277 272 267 261 257 255 253 252 250 249 249 249 248 247 245 243 242 239 237
268 275 284 293 303 312 317 323 325 328 335 339 343 344 342 341 339 337 336 334 335 335 333 329 325 321 316 310 302 294 285 277 270 263 257 254 252 251 249 247 246 246 245 245 244 241 241 240 238
268 278 284 293 304 312 321 326 334 339 342 345 350 349 347 348 346 345 344 344 343 342 340 336 332 329 325 320 314 306 296 286 277 268 261 256 253 251 249 246 245 245 245 243 242 241 241 241 239
267 274 283 295 309 316 321 335 342 342 347 352 356 357 358 358 357 356 355 353 351 349 346 343 340 338 335 331 324 318 310 298 287 277 267 260 255 252 248 246 245 245 244 241 241 241 241 240 239
263 273 279 297 311 323 336 350 347 347 353 359 4 6 6 6 5 3 2 0 358 355 353 352 351 348 345 342 338 332 326 317 301 288 276 265 261 255 250 246 245 245 244 242 241 240 239 238 237
259 275 284 297 311 325 343 353 350 351 359 4 9 10 9 8 8 8 7 5 4 3 2 2 0 0 358 355 350 345 338 332 320 303 288 276 268 262 256 251 247 245 246 245 242 239 238 236 235
256 274 284 293 308 326 344 356 359 2 8 14 15 14 11 9 10 11 9 9 8 8 8 8 7 7 7 5 1 356 350 343 334 320 304 290 277 270 264 258 252 247 245 243 241 239 237 235 235
253 266 278 297 310 321 338 355 10 16 23 25 21 17 14 13 13 12 12 13 13 12 12 12 12 11 10 8 6 4 1 356 348 337 320 304 291 282 275 265 257 251 247 245 242 240 238 236 237
249 259 277 291 299 311 327 354 20 30 32 30 24 18 15 16 16 14 15 16 16 15 14 14 13 12 10 9 7 5 3 358 353 346 335 320 305 294 283 274 265 257 251 249 245 242 239 237 237
245 254 265 270 278 286 319 9 41 37 36 35 27 20 18 17 16 16 16 18 17 16 15 14 13 12 11 10 8 6 3 359 356 351 342 332 320 307 296 285 273 262 255 251 249 244 241 239 237
241 251 257 257 260 257 284 77 59 42 39 37 30 24 21 18 16 16 17 16 15 15 15 14 12 11 10 10 9 8 5 2 358 354 348 340 331 321 308 298 286 272 262 256 251 246 244 241 238
240 245 246 247 246 237 193 109 66 48 43 38 30 25 21 19 17 15 14 14 12 11 11 11 11 11 10 10 10 10 9 6 1 357 353 348 342 333 323 312 301 287 270 260 254 249 249 246 241
237 236 236 242 244 220 182 129 81 59 50 42 34 26 21 18 16 14 12 10 9 9 9 9 10 11 11 11 10 10 10 10 8 4 1 357 354 349 341 328 316 301 285 271 261 256 254 250 245
228 225 225 230 230 210 182 155 106 77 55 40 31 25 20 16 14 12 9 8 8 8 8 9 9 10 11 11 11 12 12 11 11 11 10 8 6 3 359 353 344 327 306 287 270 262 257 252 249
217 213 216 222 224 211 190 175 144 97 53 34 27 22 18 14 10 7 6 6 7 7 8 8 8 9 11 12 13 13 13 14 14 14 16 16 14 11 8 4 359 353 341 319 292 277 267 259 253
207 209 216 217 217 214 189 173 160 122 61 33 25 20 14 9 6 5 5 6 7 7 8 8 8 9 10 11 12 13 13 14 15 15 15 16 16 16 14 10 3 358 352 341 322 303 288 275 262
207 207 207 209 211 208 193 175 182 155 96 46 26 15 10 6 4 5 6 6 6 6 6 7 8 9 9 10 11 12 13 13 14 15 16 17 18 18 17 15 12 8 2 355 342 324 310 295 279